QPF
0.02 0.01 0.01 0.00 0.00 0.00 0.00 0.01 0.01 0.00 0.00 0.00 0.01 0.02 0.01 0.01 0.02 0.01 0.00 0.00 0.00 0.00 0.01 0.01 0.02 0.04 0.04 0.02 0.03 0.04 0.04 0.04 0.04 0.05 0.07 0.08 0.07 0.06 0.04 0.04 0.05 0.05 0.05
0.04 0.02 0.01 0.00 0.00 0.01 0.00 0.00 0.01 0.01 0.01 0.01 0.01 0.01 0.01 0.01 0.01 0.01 0.01 0.00 0.00 0.01 0.01 0.01 0.01 0.02 0.02 0.02 0.02 0.03 0.04 0.04 0.03 0.03 0.04 0.05 0.07 0.05 0.04 0.05 0.07 0.07 0.06
0.07 0.04 0.02 0.01 0.00 0.00 0.00 0.00 0.00 0.00 0.00 0.01 0.01 0.01 0.01 0.01 0.02 0.01 0.02 0.01 0.01 0.01 0.01 0.01 0.01 0.02 0.01 0.02 0.02 0.02 0.03 0.02 0.03 0.02 0.02 0.02 0.02 0.02 0.03 0.06 0.07 0.06 0.05
0.09 0.04 0.02 0.01 0.01 0.01 0.00 0.00 0.00 0.00 0.00 0.00 0.01 0.00 0.00 0.01 0.01 0.01 0.02 0.02 0.01 0.00 0.01 0.01 0.02 0.02 0.01 0.02 0.02 0.01 0.02 0.02 0.03 0.02 0.02 0.01 0.01 0.01 0.03 0.03 0.04 0.04 0.03
0.09 0.06 0.01 0.01 0.01 0.01 0.01 0.00 0.01 0.00 0.01 0.00 0.00 0.00 0.00 0.01 0.01 0.00 0.01 0.02 0.02 0.01 0.01 0.01 0.02 0.02 0.02 0.02 0.03 0.02 0.02 0.01 0.01 0.02 0.02 0.02 0.02 0.02 0.01 0.02 0.04 0.04 0.02
0.03 0.03 0.03 0.02 0.02 0.01 0.01 0.01 0.01 0.01 0.00 0.01 0.00 0.00 0.01 0.01 0.01 0.00 0.01 0.01 0.02 0.01 0.01 0.01 0.01 0.01 0.01 0.02 0.02 0.03 0.03 0.02 0.03 0.02 0.02 0.03 0.03 0.01 0.01 0.02 0.02 0.02 0.02
0.03 0.04 0.05 0.04 0.03 0.03 0.02 0.01 0.01 0.01 0.01 0.01 0.01 0.01 0.01 0.02 0.01 0.01 0.02 0.01 0.01 0.01 0.01 0.01 0.01 0.01 0.01 0.02 0.02 0.04 0.04 0.03 0.03 0.03 0.03 0.03 0.03 0.03 0.02 0.03 0.02 0.01 0.02
0.05 0.05 0.06 0.07 0.05 0.03 0.03 0.03 0.02 0.01 0.01 0.01 0.01 0.02 0.01 0.02 0.02 0.01 0.01 0.01 0.00 0.01 0.02 0.02 0.02 0.02 0.02 0.02 0.03 0.03 0.02 0.02 0.02 0.02 0.03 0.03 0.03 0.03 0.03 0.03 0.03 0.02 0.02
0.10 0.11 0.11 0.10 0.08 0.05 0.03 0.03 0.03 0.02 0.01 0.01 0.02 0.02 0.02 0.02 0.01 0.01 0.01 0.01 0.01 0.02 0.03 0.03 0.03 0.04 0.03 0.02 0.02 0.02 0.02 0.02 0.02 0.02 0.02 0.02 0.03 0.03 0.03 0.04 0.04 0.04 0.03
0.08 0.10 0.14 0.11 0.09 0.06 0.05 0.04 0.03 0.03 0.03 0.03 0.03 0.03 0.04 0.04 0.03 0.03 0.03 0.02 0.02 0.03 0.03 0.03 0.04 0.05 0.05 0.04 0.04 0.03 0.03 0.03 0.03 0.03 0.02 0.02 0.02 0.03 0.03 0.03 0.03 0.04 0.04
0.06 0.07 0.09 0.12 0.06 0.06 0.05 0.05 0.05 0.05 0.05 0.03 0.03 0.03 0.04 0.05 0.05 0.04 0.03 0.03 0.03 0.04 0.03 0.04 0.04 0.05 0.06 0.07 0.06 0.04 0.04 0.05 0.06 0.05 0.04 0.03 0.03 0.03 0.03 0.03 0.03 0.03 0.04
0.04 0.04 0.06 0.09 0.09 0.09 0.09 0.08 0.07 0.06 0.05 0.05 0.05 0.03 0.04 0.06 0.06 0.04 0.04 0.04 0.05 0.05 0.05 0.05 0.06 0.06 0.07 0.08 0.08 0.06 0.05 0.06 0.05 0.04 0.05 0.04 0.04 0.03 0.04 0.05 0.05 0.05 0.05
0.03 0.04 0.07 0.10 0.17 0.15 0.14 0.16 0.15 0.11 0.09 0.07 0.06 0.05 0.05 0.05 0.06 0.07 0.07 0.08 0.09 0.08 0.08 0.07 0.07 0.07 0.07 0.09 0.07 0.06 0.06 0.07 0.06 0.05 0.05 0.05 0.06 0.04 0.04 0.05 0.05 0.04 0.04
0.04 0.05 0.10 0.12 0.12 0.13 0.19 0.22 0.21 0.13 0.09 0.07 0.06 0.07 0.06 0.07 0.06 0.06 0.08 0.09 0.09 0.10 0.08 0.06 0.07 0.07 0.08 0.09 0.07 0.06 0.07 0.08 0.07 0.07 0.06 0.05 0.04 0.04 0.05 0.04 0.03 0.03 0.03
0.04 0.04 0.04 0.05 0.07 0.10 0.15 0.15 0.13 0.10 0.07 0.06 0.06 0.06 0.06 0.07 0.06 0.05 0.06 0.08 0.08 0.09 0.11 0.10 0.10 0.10 0.11 0.08 0.07 0.08 0.08 0.08 0.07 0.06 0.06 0.07 0.07 0.08 0.06 0.04 0.02 0.02 0.01
0.04 0.04 0.05 0.07 0.06 0.06 0.07 0.10 0.17 0.15 0.11 0.09 0.07 0.06 0.04 0.04 0.04 0.04 0.04 0.06 0.09 0.11 0.11 0.12 0.10 0.10 0.08 0.08 0.11 0.11 0.10 0.07 0.06 0.05 0.04 0.04 0.05 0.06 0.06 0.03 0.02 0.02 0.02
0.05 0.05 0.06 0.08 0.08 0.05 0.07 0.11 0.13 0.14 0.15 0.13 0.11 0.10 0.07 0.05 0.04 0.04 0.04 0.05 0.07 0.10 0.10 0.12 0.12 0.10 0.10 0.12 0.15 0.17 0.13 0.09 0.07 0.06 0.05 0.03 0.02 0.04 0.05 0.05 0.04 0.04 0.03
0.06 0.06 0.07 0.06 0.04 0.04 0.06 0.09 0.10 0.12 0.13 0.12 0.11 0.09 0.10 0.08 0.07 0.06 0.04 0.05 0.07 0.09 0.09 0.10 0.11 0.11 0.11 0.15 0.17 0.18 0.15 0.11 0.09 0.09 0.08 0.07 0.06 0.06 0.06 0.07 0.05 0.03 0.03
0.08 0.08 0.06 0.05 0.03 0.03 0.03 0.04 0.04 0.06 0.08 0.07 0.06 0.05 0.05 0.06 0.07 0.07 0.07 0.08 0.08 0.07 0.06 0.07 0.10 0.11 0.11 0.13 0.13 0.13 0.12 0.10 0.09 0.09 0.09 0.09 0.07 0.06 0.07 0.07 0.05 0.03 0.02
0.10 0.09 0.08 0.05 0.05 0.03 0.03 0.03 0.03 0.03 0.04 0.05 0.05 0.05 0.05 0.04 0.05 0.06 0.08 0.08 0.08 0.07 0.08 0.08 0.08 0.08 0.10 0.12 0.14 0.15 0.13 0.11 0.09 0.08 0.07 0.06 0.06 0.07 0.07 0.05 0.03 0.02 0.01
0.12 0.08 0.08 0.08 0.05 0.03 0.03 0.03 0.03 0.04 0.04 0.05 0.08 0.08 0.09 0.09 0.09 0.10 0.13 0.12 0.10 0.10 0.09 0.08 0.10 0.12 0.12 0.13 0.14 0.15 0.15 0.13 0.11 0.09 0.08 0.07 0.06 0.05 0.04 0.03 0.02 0.02 0.03
0.07 0.07 0.08 0.09 0.06 0.06 0.05 0.05 0.05 0.06 0.06 0.06 0.07 0.07 0.09 0.10 0.12 0.12 0.13 0.12 0.10 0.10 0.10 0.11 0.12 0.16 0.19 0.18 0.17 0.14 0.11 0.11 0.11 0.09 0.08 0.07 0.06 0.04 0.03 0.03 0.03 0.03 0.03
0.05 0.06 0.07 0.07 0.08 0.09 0.08 0.05 0.03 0.03 0.04 0.03 0.04 0.05 0.05 0.06 0.08 0.10 0.10 0.11 0.12 0.13 0.14 0.17 0.19 0.26 0.29 0.25 0.20 0.15 0.11 0.09 0.07 0.06 0.05 0.06 0.06 0.05 0.04 0.03 0.03 0.02 0.02
0.07 0.07 0.08 0.09 0.09 0.07 0.04 0.04 0.03 0.03 0.02 0.02 0.03 0.04 0.04 0.05 0.08 0.12 0.12 0.13 0.13 0.12 0.10 0.10 0.13 0.17 0.19 0.19 0.16 0.12 0.09 0.06 0.06 0.05 0.04 0.03 0.04 0.04 0.03 0.02 0.02 0.02 0.02
0.07 0.07 0.07 0.07 0.07 0.04 0.03 0.03 0.03 0.03 0.03 0.02 0.02 0.03 0.03 0.05 0.08 0.11 0.13 0.15 0.12 0.08 0.07 0.06 0.05 0.07 0.08 0.08 0.10 0.12 0.10 0.07 0.05 0.04 0.03 0.03 0.03 0.03 0.03 0.03 0.03 0.03 0.03
0.08 0.07 0.08 0.07 0.05 0.04 0.04 0.04 0.04 0.04 0.03 0.02 0.02 0.02 0.03 0.06 0.08 0.09 0.12 0.10 0.09 0.09 0.09 0.11 0.11 0.12 0.13 0.13 0.12 0.12 0.12 0.10 0.09 0.06 0.05 0.05 0.05 0.04 0.04 0.05 0.05 0.05 0.04
MSLP
1008.77 1008.94 1009.13 1009.32 1009.53 1009.75 1010.02 1010.35 1010.76 1011.25 1011.80 1012.37 1012.92 1013.42 1013.83 1014.14 1014.36 1014.51 1014.62 1014.73 1014.87 1015.06 1015.32 1015.63 1015.97 1016.35 1016.73 1017.11 1017.48 1017.86 1018.24 1018.62 1019.01 1019.37 1019.70 1019.97 1020.16 1020.27 1020.29 1020.25 1020.17 1020.09 1020.04
1008.17 1008.44 1008.72 1008.98 1009.23 1009.47 1009.73 1010.05 1010.45 1010.96 1011.54 1012.17 1012.78 1013.34 1013.79 1014.11 1014.31 1014.41 1014.47 1014.52 1014.61 1014.78 1015.03 1015.37 1015.76 1016.19 1016.61 1017.03 1017.42 1017.80 1018.17 1018.54 1018.92 1019.29 1019.64 1019.95 1020.19 1020.35 1020.41 1020.39 1020.31 1020.21 1020.10
1007.42 1007.80 1008.20 1008.56 1008.87 1009.15 1009.41 1009.73 1010.13 1010.64 1011.24 1011.91 1012.57 1013.17 1013.66 1014.00 1014.19 1014.27 1014.28 1014.29 1014.36 1014.51 1014.76 1015.11 1015.53 1015.99 1016.44 1016.86 1017.25 1017.61 1017.96 1018.31 1018.68 1019.06 1019.44 1019.80 1020.10 1020.32 1020.44 1020.47 1020.41 1020.29 1020.16
1006.59 1007.08 1007.60 1008.07 1008.46 1008.78 1009.06 1009.37 1009.75 1010.25 1010.86 1011.53 1012.22 1012.86 1013.38 1013.74 1013.94 1014.02 1014.02 1014.02 1014.07 1014.21 1014.47 1014.83 1015.27 1015.73 1016.19 1016.60 1016.97 1017.30 1017.62 1017.94 1018.29 1018.68 1019.09 1019.51 1019.88 1020.18 1020.37 1020.45 1020.43 1020.32 1020.17
1005.76 1006.36 1006.99 1007.56 1008.03 1008.38 1008.67 1008.96 1009.32 1009.78 1010.37 1011.03 1011.73 1012.39 1012.93 1013.32 1013.55 1013.65 1013.66 1013.66 1013.71 1013.86 1014.12 1014.49 1014.94 1015.40 1015.85 1016.25 1016.59 1016.89 1017.17 1017.46 1017.80 1018.20 1018.64 1019.10 1019.54 1019.92 1020.18 1020.32 1020.34 1020.25 1020.09
1005.02 1005.71 1006.44 1007.09 1007.61 1007.99 1008.27 1008.52 1008.83 1009.24 1009.78 1010.42 1011.11 1011.77 1012.34 1012.76 1013.01 1013.14 1013.18 1013.20 1013.26 1013.42 1013.70 1014.07 1014.52 1014.98 1015.42 1015.80 1016.12 1016.39 1016.64 1016.92 1017.24 1017.64 1018.10 1018.60 1019.09 1019.53 1019.86 1020.06 1020.11 1020.05 1019.89
1004.48 1005.22 1006.01 1006.71 1007.25 1007.63 1007.88 1008.08 1008.33 1008.68 1009.16 1009.75 1010.41 1011.06 1011.64 1012.08 1012.36 1012.52 1012.58 1012.63 1012.71 1012.88 1013.16 1013.55 1013.99 1014.46 1014.90 1015.28 1015.59 1015.85 1016.08 1016.34 1016.65 1017.05 1017.52 1018.03 1018.56 1019.03 1019.41 1019.65 1019.74 1019.70 1019.55
1004.17 1004.94 1005.75 1006.46 1006.99 1007.34 1007.54 1007.68 1007.86 1008.14 1008.55 1009.09 1009.71 1010.34 1010.90 1011.35 1011.64 1011.81 1011.90 1011.95 1012.05 1012.23 1012.52 1012.91 1013.37 1013.84 1014.29 1014.69 1015.01 1015.27 1015.51 1015.76 1016.07 1016.45 1016.91 1017.42 1017.95 1018.44 1018.84 1019.10 1019.23 1019.21 1019.07
1004.12 1004.88 1005.67 1006.34 1006.84 1007.13 1007.28 1007.36 1007.46 1007.67 1008.02 1008.50 1009.07 1009.66 1010.19 1010.62 1010.90 1011.06 1011.14 1011.20 1011.29 1011.47 1011.76 1012.16 1012.64 1013.14 1013.62 1014.05 1014.41 1014.70 1014.96 1015.21 1015.51 1015.87 1016.31 1016.80 1017.31 1017.79 1018.19 1018.47 1018.61 1018.62 1018.51
1004.26 1004.99 1005.73 1006.35 1006.78 1007.01 1007.10 1007.12 1007.18 1007.33 1007.62 1008.05 1008.55 1009.08 1009.56 1009.93 1010.17 1010.29 1010.34 1010.36 1010.43 1010.60 1010.90 1011.31 1011.82 1012.36 1012.90 1013.39 1013.80 1014.14 1014.42 1014.69 1014.98 1015.32 1015.72 1016.17 1016.65 1017.10 1017.49 1017.78 1017.95 1017.99 1017.91
1004.55 1005.22 1005.89 1006.43 1006.79 1006.97 1007.01 1007.00 1007.02 1007.14 1007.38 1007.75 1008.19 1008.64 1009.04 1009.32 1009.48 1009.52 1009.50 1009.47 1009.50 1009.65 1009.94 1010.38 1010.93 1011.53 1012.13 1012.70 1013.18 1013.58 1013.91 1014.20 1014.48 1014.80 1015.16 1015.56 1015.99 1016.42 1016.80 1017.10 1017.29 1017.38 1017.36
1004.88 1005.49 1006.08 1006.54 1006.84 1006.97 1006.99 1006.97 1006.98 1007.09 1007.30 1007.61 1007.98 1008.33 1008.61 1008.78 1008.82 1008.76 1008.65 1008.54 1008.53 1008.65 1008.94 1009.40 1009.99 1010.66 1011.34 1011.98 1012.54 1013.01 1013.38 1013.69 1013.98 1014.27 1014.60 1014.96 1015.35 1015.75 1016.13 1016.45 1016.68 1016.83 1016.88
1005.19 1005.75 1006.26 1006.66 1006.92 1007.03 1007.05 1007.04 1007.07 1007.17 1007.36 1007.61 1007.89 1008.13 1008.28 1008.31 1008.21 1008.02 1007.80 1007.62 1007.55 1007.65 1007.93 1008.42 1009.05 1009.78 1010.53 1011.24 1011.87 1012.40 1012.81 1013.15 1013.44 1013.71 1014.01 1014.34 1014.71 1015.10 1015.49 1015.84 1016.13 1016.34 1016.47
1005.44 1005.94 1006.41 1006.77 1007.00 1007.12 1007.16 1007.19 1007.25 1007.36 1007.53 1007.73 1007.91 1008.02 1008.03 1007.90 1007.66 1007.34 1007.02 1006.76 1006.63 1006.70 1006.99 1007.49 1008.15 1008.92 1009.72 1010.49 1011.16 1011.73 1012.18 1012.53 1012.82 1013.09 1013.38 1013.70 1014.06 1014.46 1014.87 1015.26 1015.61 1015.90 1016.11
1005.59 1006.07 1006.51 1006.85 1007.09 1007.24 1007.33 1007.41 1007.50 1007.63 1007.78 1007.91 1007.99 1007.98 1007.85 1007.58 1007.20 1006.77 1006.35 1006.02 1005.86 1005.90 1006.18 1006.68 1007.36 1008.14 1008.95 1009.73 1010.42 1011.00 1011.46 1011.82 1012.12 1012.39 1012.69 1013.02 1013.39 1013.82 1014.26 1014.70 1015.10 1015.45 1015.73
1005.67 1006.14 1006.57 1006.92 1007.19 1007.39 1007.54 1007.68 1007.81 1007.95 1008.07 1008.14 1008.13 1008.01 1007.75 1007.36 1006.87 1006.35 1005.87 1005.50 1005.31 1005.34 1005.60 1006.08 1006.73 1007.48 1008.26 1009.01 1009.67 1010.23 1010.67 1011.03 1011.33 1011.62 1011.93 1012.29 1012.70 1013.16 1013.65 1014.13 1014.58 1014.96 1015.27
1005.70 1006.18 1006.63 1007.01 1007.32 1007.57 1007.79 1007.97 1008.14 1008.29 1008.38 1008.40 1008.32 1008.10 1007.75 1007.28 1006.74 1006.17 1005.67 1005.28 1005.08 1005.09 1005.32 1005.75 1006.34 1007.01 1007.71 1008.37 1008.96 1009.46 1009.86 1010.20 1010.51 1010.82 1011.17 1011.57 1012.02 1012.52 1013.05 1013.56 1014.02 1014.42 1014.73
1005.72 1006.22 1006.69 1007.10 1007.46 1007.78 1008.05 1008.28 1008.48 1008.62 1008.70 1008.68 1008.54 1008.28 1007.89 1007.40 1006.85 1006.30 1005.81 1005.44 1005.24 1005.23 1005.42 1005.78 1006.25 1006.80 1007.36 1007.89 1008.36 1008.76 1009.10 1009.41 1009.72 1010.06 1010.45 1010.90 1011.41 1011.95 1012.50 1013.02 1013.47 1013.84 1014.11
1005.77 1006.29 1006.78 1007.23 1007.64 1007.99 1008.31 1008.58 1008.79 1008.94 1009.01 1008.97 1008.83 1008.56 1008.19 1007.73 1007.24 1006.75 1006.32 1006.01 1005.83 1005.80 1005.93 1006.18 1006.51 1006.89 1007.27 1007.63 1007.94 1008.23 1008.49 1008.76 1009.07 1009.43 1009.87 1010.38 1010.93 1011.51 1012.08 1012.59 1013.01 1013.31 1013.50
1005.89 1006.42 1006.93 1007.40 1007.84 1008.23 1008.57 1008.86 1009.09 1009.24 1009.32 1009.29 1009.17 1008.95 1008.65 1008.29 1007.90 1007.53 1007.20 1006.96 1006.81 1006.77 1006.82 1006.95 1007.12 1007.31 1007.49 1007.65 1007.80 1007.95 1008.13 1008.36 1008.66 1009.06 1009.54 1010.10 1010.70 1011.30 1011.87 1012.34 1012.71 1012.94 1013.03
1006.11 1006.63 1007.15 1007.64 1008.09 1008.49 1008.84 1009.14 1009.38 1009.54 1009.64 1009.65 1009.60 1009.47 1009.28 1009.06 1008.82 1008.59 1008.39 1008.24 1008.14 1008.09 1008.06 1008.06 1008.06 1008.05 1008.03 1008.00 1007.99 1008.02 1008.11 1008.30 1008.60 1009.02 1009.55 1010.14 1010.77 1011.39 1011.94 1012.38 1012.68 1012.82 1012.81
1006.46 1006.97 1007.47 1007.96 1008.40 1008.80 1009.15 1009.45 1009.69 1009.87 1010.00 1010.08 1010.11 1010.10 1010.06 1010.00 1009.93 1009.87 1009.82 1009.76 1009.71 1009.65 1009.56 1009.45 1009.29 1009.10 1008.90 1008.71 1008.55 1008.47 1008.49 1008.65 1008.96 1009.40 1009.95 1010.57 1011.22 1011.83 1012.36 1012.75 1012.99 1013.05 1012.96
1006.96 1007.44 1007.93 1008.39 1008.82 1009.21 1009.54 1009.83 1010.07 1010.27 1010.44 1010.59 1010.72 1010.83 1010.95 1011.07 1011.18 1011.28 1011.36 1011.41 1011.41 1011.35 1011.22 1011.01 1010.74 1010.41 1010.07 1009.75 1009.49 1009.33 1009.31 1009.45 1009.75 1010.20 1010.76 1011.39 1012.04 1012.63 1013.13 1013.47 1013.65 1013.66 1013.50
1007.61 1008.07 1008.53 1008.97 1009.37 1009.73 1010.05 1010.32 1010.56 1010.78 1010.99 1011.20 1011.43 1011.67 1011.93 1012.20 1012.47 1012.72 1012.93 1013.08 1013.14 1013.09 1012.94 1012.67 1012.32 1011.91 1011.49 1011.09 1010.77 1010.58 1010.53 1010.66 1010.96 1011.41 1011.97 1012.58 1013.20 1013.76 1014.21 1014.52 1014.65 1014.62 1014.43
1008.41 1008.85 1009.28 1009.69 1010.07 1010.41 1010.70 1010.96 1011.20 1011.43 1011.67 1011.93 1012.24 1012.58 1012.96 1013.36 1013.76 1014.13 1014.44 1014.66 1014.78 1014.76 1014.62 1014.34 1013.97 1013.54 1013.09 1012.68 1012.35 1012.15 1012.11 1012.25 1012.54 1012.97 1013.50 1014.08 1014.64 1015.15 1015.54 1015.80 1015.90 1015.84 1015.63
1009.33 1009.75 1010.16 1010.56 1010.92 1011.23 1011.51 1011.75 1011.98 1012.21 1012.47 1012.78 1013.13 1013.54 1014.00 1014.48 1014.97 1015.42 1015.81 1016.10 1016.27 1016.30 1016.19 1015.95 1015.61 1015.21 1014.80 1014.43 1014.14 1013.97 1013.96 1014.10 1014.38 1014.78 1015.26 1015.77 1016.26 1016.69 1017.01 1017.21 1017.27 1017.19 1016.99
Thickness
5803 5804 5802 5799 5794 5790 5786 5783 5779 5777 5775 5770 5766 5763 5761 5761 5760 5760 5760 5759 5758 5757 5756 5754 5752 5750 5748 5747 5745 5743 5740 5738 5738 5734 5730 5732 5734 5734 5733 5732 5730 5728 5727
5798 5799 5799 5797 5793 5790 5787 5784 5780 5778 5775 5772 5769 5766 5763 5761 5760 5760 5759 5759 5758 5756 5755 5753 5751 5749 5747 5745 5743 5742 5738 5736 5736 5731 5724 5721 5723 5728 5732 5731 5730 5729 5727
5800 5799 5798 5797 5794 5791 5788 5786 5781 5779 5776 5773 5768 5764 5760 5758 5756 5756 5756 5758 5757 5756 5755 5753 5751 5749 5747 5744 5743 5742 5738 5733 5734 5734 5727 5718 5714 5720 5726 5729 5730 5729 5727
5806 5803 5801 5798 5796 5794 5792 5788 5783 5779 5776 5773 5768 5763 5758 5755 5756 5757 5756 5756 5756 5755 5754 5753 5751 5749 5747 5745 5744 5743 5740 5736 5731 5732 5732 5730 5726 5719 5717 5723 5727 5728 5727
5811 5808 5807 5804 5801 5798 5793 5789 5784 5779 5777 5774 5770 5765 5761 5759 5758 5758 5756 5755 5755 5755 5754 5752 5751 5749 5747 5746 5744 5742 5740 5737 5733 5731 5730 5729 5726 5724 5718 5714 5719 5723 5726
5815 5812 5810 5805 5800 5798 5794 5790 5784 5780 5778 5774 5771 5767 5763 5760 5757 5756 5754 5753 5753 5753 5753 5752 5750 5749 5747 5745 5743 5742 5740 5737 5735 5733 5731 5729 5725 5722 5719 5715 5715 5716 5722
5815 5810 5806 5802 5799 5796 5794 5790 5786 5781 5779 5775 5772 5769 5766 5763 5759 5757 5755 5753 5751 5751 5752 5752 5750 5749 5747 5745 5743 5741 5739 5738 5735 5734 5732 5731 5729 5728 5724 5718 5715 5715 5718
5815 5812 5809 5806 5802 5799 5795 5791 5787 5782 5780 5777 5774 5771 5768 5765 5762 5760 5758 5755 5754 5754 5753 5752 5750 5749 5747 5745 5743 5741 5739 5738 5736 5734 5732 5731 5730 5729 5727 5722 5717 5712 5712
5815 5812 5809 5806 5803 5800 5796 5793 5789 5784 5781 5778 5775 5771 5769 5766 5763 5761 5759 5757 5756 5755 5753 5752 5750 5748 5747 5745 5742 5740 5738 5737 5735 5733 5732 5730 5730 5729 5728 5726 5722 5714 5707
5812 5810 5808 5805 5804 5802 5798 5794 5790 5786 5782 5779 5776 5773 5770 5767 5765 5762 5759 5758 5756 5755 5753 5751 5749 5747 5746 5744 5742 5739 5738 5735 5734 5732 5731 5729 5729 5728 5728 5726 5723 5720 5714
5811 5810 5807 5805 5804 5802 5798 5793 5790 5785 5782 5779 5776 5773 5770 5768 5765 5762 5760 5758 5757 5755 5753 5751 5748 5747 5745 5743 5741 5739 5737 5734 5732 5731 5730 5729 5728 5726 5726 5724 5722 5719 5716
5807 5807 5805 5803 5800 5797 5795 5792 5790 5786 5783 5780 5776 5773 5770 5767 5764 5762 5761 5759 5756 5755 5753 5751 5748 5746 5744 5743 5740 5738 5736 5734 5731 5730 5729 5727 5727 5725 5723 5722 5720 5718 5717
5800 5801 5800 5799 5797 5795 5793 5791 5789 5787 5783 5780 5775 5772 5769 5767 5764 5762 5760 5758 5756 5754 5752 5749 5747 5746 5744 5742 5740 5738 5736 5734 5732 5730 5728 5727 5724 5722 5721 5720 5718 5717 5716
5795 5794 5794 5795 5794 5793 5792 5790 5787 5785 5782 5778 5774 5771 5769 5767 5765 5763 5760 5758 5756 5753 5751 5749 5747 5745 5744 5742 5740 5737 5735 5733 5732 5730 5728 5727 5724 5722 5720 5718 5716 5715 5712
5788 5788 5787 5789 5788 5787 5787 5786 5785 5782 5780 5776 5773 5772 5771 5768 5765 5762 5760 5758 5755 5754 5751 5748 5746 5744 5742 5741 5738 5736 5734 5731 5729 5728 5727 5727 5725 5724 5721 5719 5715 5713 5709
5781 5783 5783 5783 5783 5784 5784 5783 5781 5780 5778 5775 5773 5771 5768 5765 5763 5760 5759 5756 5754 5752 5750 5747 5744 5742 5742 5741 5739 5736 5732 5730 5728 5726 5725 5725 5724 5722 5721 5719 5717 5714 5709
5776 5778 5779 5779 5780 5781 5783 5780 5779 5777 5775 5773 5771 5768 5765 5763 5761 5759 5757 5754 5752 5751 5748 5746 5743 5741 5741 5739 5736 5734 5730 5728 5727 5725 5723 5722 5723 5721 5718 5716 5714 5712 5711
5768 5771 5773 5774 5775 5777 5777 5776 5774 5772 5770 5768 5766 5764 5762 5760 5758 5756 5754 5753 5751 5749 5746 5744 5742 5740 5739 5737 5734 5731 5728 5727 5726 5724 5722 5720 5719 5718 5715 5712 5709 5708 5707
5764 5767 5769 5770 5771 5771 5771 5770 5768 5766 5764 5762 5761 5760 5759 5756 5754 5752 5751 5749 5748 5746 5744 5742 5740 5737 5736 5734 5732 5729 5726 5723 5723 5722 5720 5719 5716 5715 5712 5708 5704 5702 5702
5760 5761 5764 5765 5764 5765 5766 5763 5761 5759 5758 5759 5758 5757 5756 5753 5751 5749 5747 5746 5745 5743 5741 5739 5737 5736 5734 5732 5729 5727 5724 5720 5719 5718 5717 5716 5714 5711 5709 5705 5701 5697 5697
5753 5754 5755 5754 5756 5759 5759 5755 5754 5753 5754 5755 5753 5752 5751 5749 5747 5745 5743 5742 5741 5738 5736 5734 5733 5732 5730 5729 5726 5723 5721 5718 5715 5713 5712 5711 5710 5707 5704 5701 5699 5697 5695
5744 5745 5745 5746 5749 5751 5751 5748 5746 5748 5749 5748 5746 5745 5744 5743 5742 5739 5737 5736 5734 5732 5730 5728 5726 5726 5725 5724 5722 5719 5718 5716 5713 5711 5709 5707 5705 5702 5699 5697 5695 5693 5690
5733 5735 5736 5737 5739 5741 5742 5739 5739 5741 5741 5740 5738 5737 5736 5735 5734 5732 5730 5728 5727 5726 5723 5721 5720 5719 5719 5718 5716 5714 5712 5710 5708 5707 5704 5702 5699 5696 5693 5691 5689 5686 5683
5722 5725 5726 5726 5727 5730 5732 5732 5733 5734 5733 5731 5729 5729 5728 5726 5725 5724 5723 5721 5719 5718 5717 5715 5713 5713 5712 5711 5710 5708 5706 5704 5702 5699 5697 5694 5692 5689 5686 5684 5681 5679 5676
5713 5715 5715 5715 5717 5720 5721 5723 5725 5725 5723 5721 5720 5720 5719 5717 5715 5714 5712 5712 5711 5711 5710 5709 5709 5707 5705 5705 5704 5702 5701 5699 5696 5692 5688 5685 5682 5679 5676 5674 5672 5670 5667
5704 5705 5706 5706 5708 5711 5712 5714 5716 5717 5715 5713 5711 5710 5709 5707 5706 5705 5702 5701 5701 5702 5702 5703 5702 5700 5699 5698 5696 5695 5693 5691 5688 5684 5679 5676 5673 5670 5667 5664 5662 5659 5657